CT1OY Oeiras PT current weather conditions

sailwx.info

Wind from 004

Air temperature 20.0° C
Dewpoint 15.6° C

Last reported at 2014-Nov-24 11:44 UTC.
Time now 2014-Nov-24 12:33 UTC

Location: N 38°44' W 009°17'.
View on Google Maps.

See reports from other nearby stations

  
Tides and Currents Weather Stations Pressure Air Temp Water Temp Dewpoint Dewpoint Depression Visibility Wind Speed Wind Dir Waves Ship Positions
date/time (UTC)wind fromknots sea level pressurealtimeterstation pressurevisibilityair tempwater tempwave heightnotes
2014-Nov-24 11:44 004 20.0
2014-Nov-24 11:34 350 20.0
2014-Nov-24 11:14 036 19.4
2014-Nov-24 11:04 051 0 18.9
2014-Nov-24 10:54 072 1 18.9
2014-Nov-24 10:44 069 18.9
2014-Nov-24 10:34 004 3 18.3
2014-Nov-24 10:04 048 17.8
2014-Nov-24 09:54 086 17.2
2014-Nov-24 09:24 034 1 16.7
2014-Nov-24 09:14 049 16.1
2014-Nov-24 09:04 027 1 16.1
2014-Nov-24 08:54 005 0 15.6
2014-Nov-24 08:34 031 15.0
2014-Nov-24 08:14 045 15.0
2014-Nov-24 08:04 029 15.0
2014-Nov-24 07:54 011 15.0
2014-Nov-24 07:44 338 15.0
2014-Nov-24 07:24 360 1 15.0
2014-Nov-24 07:14 360 3 15.0
2014-Nov-24 07:04 025 1 15.0
2014-Nov-24 06:44 340 2 15.0
2014-Nov-24 06:34 316 1 15.0
2014-Nov-24 06:14 008 0 15.0
2014-Nov-24 06:04 047 1 15.0
2014-Nov-24 05:54 029 4 15.0
2014-Nov-24 05:44 048 3 15.0
2014-Nov-24 05:24 018 2 15.0
2014-Nov-24 05:04 029 4 15.0
2014-Nov-24 04:54 359 4 15.0
2014-Nov-24 04:44 347 3 14.4
2014-Nov-24 04:14 345 1 14.4
2014-Nov-24 03:54 011 4 14.4
2014-Nov-24 03:34 339 0 14.4
2014-Nov-24 03:14 013 13.9
2014-Nov-24 03:04 039 3 13.9
2014-Nov-24 02:24 072 13.9
2014-Nov-24 02:14 019 0 13.9
2014-Nov-24 01:54 043 2 13.9
2014-Nov-24 01:44 046 1 13.9
2014-Nov-24 01:24 090 2 13.9
2014-Nov-24 01:04 360 1 13.9
2014-Nov-24 00:44 290 2 13.3
2014-Nov-24 00:24 336 13.3
2014-Nov-24 00:04 297 12.8
2014-Nov-23 23:34 325 0 12.8
2014-Nov-23 23:04 052 5 13.3
2014-Nov-23 22:44 014 12.8
2014-Nov-23 22:34 020 0 13.3
2014-Nov-23 22:14 344 12.8
2014-Nov-23 22:04 333 0 12.8
2014-Nov-23 21:54 009 2 12.8
2014-Nov-23 21:44 323 0 12.8
2014-Nov-23 21:34 344 1 12.8
2014-Nov-23 21:14 008 0 12.8
2014-Nov-23 21:04 004 2 12.8
2014-Nov-23 20:54 037 3 12.8
2014-Nov-23 20:24 275 0 12.8
2014-Nov-23 20:14 283 1 12.8
2014-Nov-23 19:54 107 12.8
2014-Nov-23 19:34 081 0 12.8
2014-Nov-23 19:14 291 0 12.8
2014-Nov-23 19:04 287 12.8
2014-Nov-23 18:54 344 12.8
2014-Nov-23 18:44 355 2 12.8
2014-Nov-23 18:34 302 12.8
2014-Nov-23 18:14 007 12.8
2014-Nov-23 18:04 322 12.8
2014-Nov-23 17:54 279 12.8
2014-Nov-23 17:34 003 12.8
2014-Nov-23 17:14 314 12.8
2014-Nov-23 16:34 264 12.8
2014-Nov-23 16:14 332 0 12.8
2014-Nov-23 16:04 326 12.8
2014-Nov-23 15:54 001 12.8
2014-Nov-23 15:14 347 1 12.8
2014-Nov-23 15:04 281 0 12.8
2014-Nov-23 14:54 306 12.8
2014-Nov-23 14:44 273 12.8
2014-Nov-23 14:04 009 1 12.8
2014-Nov-23 13:34 290 13.3
2014-Nov-23 13:14 260 0 13.3
2014-Nov-23 12:44 269 0 13.3
2014-Nov-23 12:34 284 6 gusting 14 13.3
2014-Nov-23 12:14 316 1 13.9
2014-Nov-23 12:04 294 13.9
2014-Nov-23 11:54 339 7 gusting 13 13.9
2014-Nov-23 11:34 338 3 gusting 12 13.9
2014-Nov-23 11:14 283 2 gusting 11 14.4
2014-Nov-23 10:24 276 3 gusting 11 14.4
2014-Nov-23 10:14 281 0 gusting 19 14.4
2014-Nov-23 09:44 323 1 gusting 10 13.9
2014-Nov-23 09:34 352 7 13.9
2014-Nov-23 09:14 353 2 gusting 10 13.9
2014-Nov-23 09:04 001 4 gusting 11 13.9
2014-Nov-23 08:54 322 1 gusting 12 13.9
2014-Nov-23 08:34 360 7 gusting 11 13.9
2014-Nov-23 08:14 027 7 gusting 17 13.9
2014-Nov-23 08:04 298 1 gusting 15 13.9
2014-Nov-23 07:54 319 4 gusting 13 13.9
2014-Nov-23 07:44 011 10 gusting 13 13.9
2014-Nov-23 07:34 262 6 gusting 13 14.4
2014-Nov-23 07:04 333 2 gusting 14 14.4
2014-Nov-23 06:54 302 4 gusting 16 14.4
2014-Nov-23 06:14 284 2 15.0
2014-Nov-23 06:04 316 3 gusting 11 15.0
2014-Nov-23 05:44 264 4 15.0
2014-Nov-23 05:34 293 6 gusting 13 15.0
2014-Nov-23 05:14 257 8 15.0
2014-Nov-23 05:04 011 6 gusting 12 15.0
2014-Nov-23 04:44 281 2 15.0
2014-Nov-23 04:24 291 2 14.4
2014-Nov-23 04:04 277 5 14.4
2014-Nov-23 03:34 333 8 gusting 11 14.4
2014-Nov-23 03:14 290 1 14.4
2014-Nov-23 03:04 299 2 14.4
2014-Nov-23 02:54 316 4 gusting 10 14.4
2014-Nov-23 02:24 297 4 gusting 10 14.4
2014-Nov-23 02:14 003 6 gusting 11 14.4
2014-Nov-23 02:04 285 7 14.4
2014-Nov-23 01:54 281 3 gusting 11 14.4
2014-Nov-23 01:34 027 6 gusting 11 14.4
2014-Nov-23 01:04 312 1 14.4
2014-Nov-23 00:54 006 6 14.4
2014-Nov-23 00:44 302 2 15.0
2014-Nov-23 00:14 011 0 15.0
2014-Nov-23 00:04 287 1 15.0
2014-Nov-22 23:54 301 3 15.0
2014-Nov-22 23:24 267 0 15.6
2014-Nov-22 23:14 270 0 15.6
2014-Nov-22 23:04 020 2 15.6
2014-Nov-22 22:54 320 5 15.6
2014-Nov-22 22:44 350 3 15.6
2014-Nov-22 22:34 322 0 15.6
2014-Nov-22 22:14 046 0 15.6
2014-Nov-22 22:04 345 2 15.6
2014-Nov-22 21:54 037 0 gusting 10 15.6
2014-Nov-22 21:44 003 4 15.6
2014-Nov-22 21:34 013 4 15.6
2014-Nov-22 21:14 222 16.1
2014-Nov-22 21:04 003 2 16.1
2014-Nov-22 20:54 269 16.1
2014-Nov-22 20:44 293 3 16.1
2014-Nov-22 20:34 322 0 16.1
2014-Nov-22 19:54 347 3 16.1
2014-Nov-22 19:34 360 1 16.7
2014-Nov-22 19:24 300 1 16.7
2014-Nov-22 19:14 312 16.7
2014-Nov-22 19:04 030 17.2
2014-Nov-22 18:54 311 0 17.2
2014-Nov-22 18:34 293 17.2
2014-Nov-22 18:14 308 17.2
2014-Nov-22 17:44 027 17.8
2014-Nov-22 17:34 324 17.8
2014-Nov-22 17:04 320 17.8
2014-Nov-22 16:44 352 18.3
2014-Nov-22 16:34 352 18.3
2014-Nov-22 16:14 352 18.3
2014-Nov-22 16:04 053 18.3
2014-Nov-22 15:44 013 18.3
2014-Nov-22 15:34 352 18.3
2014-Nov-22 15:14 073 18.3
2014-Nov-22 15:04 335 18.3
2014-Nov-22 14:44 001 18.3
2014-Nov-22 14:34 011 18.3
2014-Nov-22 14:14 041 17.8
2014-Nov-22 13:44 024 1 17.2
2014-Nov-22 13:34 023 1 17.2
2014-Nov-22 13:14 058 1 gusting 10 17.2
2014-Nov-22 13:04 045 1 17.2
2014-Nov-22 12:34 089 0 17.2
2014-Nov-22 12:24 048 0 17.2
2014-Nov-22 12:14 034 16.7
2014-Nov-22 12:04 307 0 16.7